Kilmarnock, Virginia, United States (22482)
Lat: 37.71N, Lon: 76.38W
Wx Zone: VAZ078
Local Info
Past Weather Observations for Friday, February 5, 2016

NOTE: This archive is for the closest National Weather Service station to Kilmarnock. Information may differ from the station used for current weather conditions.

Click here for Long-term Archive

Time Weather Temperature Dewpoint Humidity Pressure Winds Precip Visibility
23:55
Clear
27°F / -3°C 25°F / -4°C 93% 30.42 in
(1030 mb)
Calm - 10SM
23:35
Clear
27°F / -3°C 25°F / -4°C 93% 30.42 in
(1030 mb)
Calm - 10SM
23:15
Clear
27°F / -3°C 25°F / -4°C 93% 30.42 in
(1030 mb)
Calm - 10SM
22:55
Clear
27°F / -3°C 23°F / -5°C 86% 30.42 in
(1030 mb)
Calm - 10SM
22:35
Clear
28°F / -2°C 25°F / -4°C 86% 30.42 in
(1030 mb)
Calm - 10SM
22:15
Clear
28°F / -2°C 25°F / -4°C 86% 30.42 in
(1030 mb)
Calm - 10SM
21:55
Clear
30°F / -1°C 25°F / -4°C 80% 30.42 in
(1030 mb)
Calm - 10SM
21:35
Clear
30°F / -1°C 23°F / -5°C 75% 30.42 in
(1030 mb)
Calm - 10SM
21:15
Clear
32°F / 0°C 23°F / -5°C 69% 30.39 in
(1029 mb)
NNW 3.5 mph
(NNW 6 kph)
- 10SM
20:55
Clear
32°F / 0°C 23°F / -5°C 69% 30.42 in
(1030 mb)
Calm - 10SM
20:35
Clear
32°F / 0°C 25°F / -4°C 75% 30.39 in
(1029 mb)
NNE 3.5 mph
(NNE 6 kph)
- 10SM
20:15
Clear
32°F / 0°C 25°F / -4°C 75% 30.39 in
(1029 mb)
Calm - 10SM
19:55
Clear
34°F / 1°C 25°F / -4°C 70% 30.39 in
(1029 mb)
Calm - 10SM
19:35
Clear
36°F / 2°C 23°F / -5°C 60% 30.39 in
(1029 mb)
Calm - 10SM
19:15
Clear
37°F / 3°C 23°F / -5°C 56% 30.39 in
(1029 mb)
NNW 3.5 mph
(NNW 6 kph)
- 10SM
18:55
Clear
37°F / 3°C 21°F / -6°C 52% 30.39 in
(1029 mb)
Calm - 10SM
18:35
Clear
39°F / 4°C 21°F / -6°C 48% 30.39 in
(1029 mb)
NNW 3.5 mph
(NNW 6 kph)
- 10SM
18:15
Clear
39°F / 4°C 21°F / -6°C 48% 30.36 in
(1028 mb)
Calm - 10SM
17:55
Clear
41°F / 5°C 19°F / -7°C 42% 30.36 in
(1028 mb)
NW 4.6 mph
(NW 7 kph)
- 10SM
17:35
Clear
41°F / 5°C 19°F / -7°C 42% 30.36 in
(1028 mb)
NW 5.8 mph
(NW 9 kph)
- 10SM
17:15
Clear
43°F / 6°C 19°F / -7°C 39% 30.33 in
(1027 mb)
NW 4.6 mph
(NW 7 kph)
- 10SM
16:55
Clear
43°F / 6°C 19°F / -7°C 39% 30.33 in
(1027 mb)
NW 8.1 mph
(NW 13 kph)
- 10SM
16:35
Clear
45°F / 7°C 19°F / -7°C 37% 30.33 in
(1027 mb)
NW 6.9 mph
(NW 11 kph)
- 10SM
16:15
Clear
45°F / 7°C 19°F / -7°C 37% 30.3 in
(1026 mb)
NW 9.2 mph
(NW 15 kph)
- 10SM
15:55
Clear
45°F / 7°C 21°F / -6°C 39% 30.3 in
(1026 mb)
NW 6.9 mph
(NW 11 kph)
- 10SM
15:35
Clear
45°F / 7°C 21°F / -6°C 39% 30.3 in
(1026 mb)
NNW 9.2 mph
(NNW 15 kph)
- 10SM
15:15
Clear
45°F / 7°C 21°F / -6°C 39% 30.3 in
(1026 mb)
NW 6.9 mph
(NW 11 kph)
- 10SM
14:55
Clear
45°F / 7°C 23°F / -5°C 42% 30.3 in
(1026 mb)
NW 10.4 mph
(NW 17 kph)
- 10SM
14:35
Partly Cloudy
45°F / 7°C 25°F / -4°C 46% 30.3 in
(1026 mb)
NW 13.8 mph
(NW 22 kph)
- 10SM
14:15
Partly Cloudy
45°F / 7°C 25°F / -4°C 46% 30.3 in
(1026 mb)
NNW 10.4 mph
(NNW 17 kph)
- 10SM
13:55
Partly Cloudy
43°F / 6°C 23°F / -5°C 46% 30.3 in
(1026 mb)
NNW 9.2 mph
(NNW 15 kph)
- 10SM
13:35
Partly Cloudy
43°F / 6°C 25°F / -4°C 49% 30.3 in
(1026 mb)
NW 8.1 mph
(NW 13 kph)
- 10SM
13:15
Partly Cloudy
43°F / 6°C 25°F / -4°C 49% 30.3 in
(1026 mb)
WNW 10.4 mph
(WNW 17 kph)
- 10SM
12:55
Partly Cloudy
43°F / 6°C 25°F / -4°C 49% 30.3 in
(1026 mb)
NW 10.4 mph
(NW 17 kph)
- 10SM
12:35
Mostly Cloudy
41°F / 5°C 25°F / -4°C 53% 30.3 in
(1026 mb)
NW 15 mph
(NW 24 kph)
- 10SM
12:15
Overcast
41°F / 5°C 27°F / -3°C 57% 30.3 in
(1026 mb)
NW 10.4 mph
(NW 17 kph)
- 10SM
11:55
Overcast
39°F / 4°C 27°F / -3°C 61% 30.3 in
(1026 mb)
NW 10.4 mph
(NW 17 kph)
- 10SM
11:35
Overcast
39°F / 4°C 25°F / -4°C 56% 30.3 in
(1026 mb)
NW 12.7 mph
(NW 20 kph)
- 10SM
11:15
Overcast
39°F / 4°C 27°F / -3°C 61% 30.3 in
(1026 mb)
NW 10.4 mph
(NW 17 kph)
- 10SM
10:55
Overcast
39°F / 4°C 28°F / -2°C 65% 30.3 in
(1026 mb)
NW 8.1 mph
(NW 13 kph)
- 10SM
10:35
Mostly Cloudy
41°F / 5°C 28°F / -2°C 61% 30.27 in
(1025 mb)
NW 15 mph
(NW 24 kph)
- 10SM
10:15
Overcast
39°F / 4°C 30°F / -1°C 70% 30.27 in
(1025 mb)
NW 11.5 mph
(NW 19 kph)
- 10SM
09:55
Mostly Cloudy
37°F / 3°C 30°F / -1°C 75% 30.24 in
(1024 mb)
NW 8.1 mph
(NW 13 kph)
- 10SM
09:35
Partly Cloudy
37°F / 3°C 32°F / 0°C 81% 30.24 in
(1024 mb)
NW 9.2 mph
(NW 15 kph)
- 10SM
09:15
Mostly Cloudy
37°F / 3°C 34°F / 1°C 87% 30.21 in
(1023 mb)
NW 9.2 mph
(NW 15 kph)
- 10SM
08:55
Partly Cloudy
37°F / 3°C 34°F / 1°C 87% 30.21 in
(1023 mb)
NW 6.9 mph
(NW 11 kph)
- 10SM
08:35
Partly Cloudy
36°F / 2°C 34°F / 1°C 93% 30.21 in
(1023 mb)
NW 5.8 mph
(NW 9 kph)
- 10SM
08:15
Mostly Cloudy
34°F / 1°C 34°F / 1°C 100% 30.18 in
(1022 mb)
NW 5.8 mph
(NW 9 kph)
- 10SM
07:55
Overcast
34°F / 1°C 34°F / 1°C 100% 30.18 in
(1022 mb)
NW 3.5 mph
(NW 6 kph)
- 10SM
07:35
Overcast
34°F / 1°C 32°F / 0°C 93% 30.18 in
(1022 mb)
NW 3.5 mph
(NW 6 kph)
- 7SM
07:15
Overcast
34°F / 1°C 32°F / 0°C 93% 30.15 in
(1021 mb)
NW 5.8 mph
(NW 9 kph)
- 7SM
06:55
Overcast
34°F / 1°C 34°F / 1°C 100% 30.15 in
(1021 mb)
NW 5.8 mph
(NW 9 kph)
- 7SM
06:35
Overcast
34°F / 1°C 32°F / 0°C 93% 30.12 in
(1020 mb)
NNW 9.2 mph
(NNW 15 kph)
- 7SM
06:15
Overcast
34°F / 1°C 32°F / 0°C 93% 30.09 in
(1019 mb)
NW 6.9 mph
(NW 11 kph)
- 5SM
05:55
Overcast
34°F / 1°C 32°F / 0°C 93% 30.06 in
(1018 mb)
NW 10.4 mph
(NW 17 kph)
- 4SM
05:35
Overcast
34°F / 1°C 34°F / 1°C 100% 30.12 in
(1020 mb)
NW 10.4 mph
(NW 17 kph)
- 5SM
05:15
Overcast
34°F / 1°C 32°F / 0°C 93% 30.09 in
(1019 mb)
NW 9.2 mph
(NW 15 kph)
- 5SM
04:55
Overcast
34°F / 1°C 32°F / 0°C 93% 30.09 in
(1019 mb)
NW 6.9 mph
(NW 11 kph)
- 4SM
04:35
Overcast
34°F / 1°C 32°F / 0°C 93% 30.06 in
(1018 mb)
NW 10.4 mph
(NW 17 kph)
- 3SM
04:15
Overcast
34°F / 1°C 32°F / 0°C 93% 30.09 in
(1019 mb)
NW 11.5 mph
(NW 19 kph)
- 3SM
03:55
Overcast
36°F / 2°C 34°F / 1°C 93% 30.06 in
(1018 mb)
NNW 10.4 mph
(NNW 17 kph)
- 7SM
03:35
Overcast
36°F / 2°C 34°F / 1°C 93% 30.06 in
(1018 mb)
NW 8.1 mph
(NW 13 kph)
- 5SM
03:15
Overcast
37°F / 3°C 36°F / 2°C 93% 30.04 in
(1017 mb)
NNW 9.2 mph
(NNW 15 kph)
- 5SM
02:55
Overcast
37°F / 3°C 36°F / 2°C 93% 30.04 in
(1017 mb)
NNW 8.1 mph
(NNW 13 kph)
- 5SM
02:35
Overcast
37°F / 3°C 36°F / 2°C 93% 30.06 in
(1018 mb)
NW 5.8 mph
(NW 9 kph)
- 5SM
02:15
Overcast
39°F / 4°C 36°F / 2°C 87% 30.06 in
(1018 mb)
N 4.6 mph
(N 7 kph)
- 7SM
01:55
Overcast
39°F / 4°C 37°F / 3°C 93% 30.06 in
(1018 mb)
NNW 8.1 mph
(NNW 13 kph)
- 5SM
01:35
Overcast
39°F / 4°C 37°F / 3°C 93% 30.06 in
(1018 mb)
NNW 8.1 mph
(NNW 13 kph)
- 7SM
01:15
Overcast
41°F / 5°C 39°F / 4°C 93% 30.06 in
(1018 mb)
NNW 5.8 mph
(NNW 9 kph)
- 4SM
00:55
Overcast
41°F / 5°C 39°F / 4°C 93% 30.06 in
(1018 mb)
NNW 5.8 mph
(NNW 9 kph)
- 5SM
00:35
Overcast
41°F / 5°C 39°F / 4°C 93% 30.06 in
(1018 mb)
N 10.4 mph
(N 17 kph)
- 7SM
00:15
Overcast
41°F / 5°C 39°F / 4°C 93% 30.06 in
(1018 mb)
N 6.9 mph
(N 11 kph)
- 4SM
Time Weather Temperature Dewpoint Humidity Pressure Winds Precip Visibility


Weather for websites

WeatherForYou.com, LLC is not responsible for any damages or problems caused by this service. Current weather conditions are obtained from the closest station including government and personal stations which may have varying degrees of accuracy. Weather forecasts are derived from the NOAA NDFD. Like all things, this site belongs to Jesus Christ... He just trusts us to maintain it. If you have any questions or comments email webmaster@weatherforyou.com

Copyright © 2016, WeatherForYou.com LLC. All rights reserved.